Location: Harwich
(41.7160°N, 69.9939°W)
Time: 13:57:12
(UTC+02:00)

AO-73 - Visible Passes

Search period start: 17 September 2024 00:00
Search period end: 27 September 2024 00:00
Orbit: 552 x 616 km, 97.7° (Epoch: 16 September)

Date Brightness Start Highest point End Pass type
(mag) Time Alt. Az. Time Alt. Az. Time Alt. Az.
17 Sep ? 09:36:13 10° NNE 09:38:35 32° NE 09:38:35 32° NE visible
17 Sep ? 11:13:32 10° NW 11:15:00 12° WNW 11:15:00 12° WNW visible
18 Sep ? 09:42:23 10° NNE 09:44:44 33° NNE 09:44:44 33° NNE visible
18 Sep ? 11:20:39 10° NW 11:21:08 10° WNW 11:21:08 10° WNW visible
19 Sep ? 09:48:32 10° NNE 09:50:51 33° NNE 09:50:51 33° NNE visible
20 Sep ? 09:54:40 10° N 09:56:55 32° N 09:56:55 32° N visible
21 Sep ? 10:00:49 10° N 10:02:59 30° N 10:02:59 30° N visible
22 Sep ? 10:06:56 10° N 10:09:00 28° N 10:09:00 28° N visible
23 Sep ? 10:13:02 10° N 10:15:01 26° NNW 10:15:01 26° NNW visible
24 Sep ? 10:19:08 10° N 10:20:59 24° NNW 10:20:59 24° NNW visible
25 Sep ? 10:25:13 10° N 10:26:55 22° NNW 10:26:55 22° NNW visible
26 Sep ? 10:31:18 10° N 10:32:50 20° NNW 10:32:50 20° NNW visible
